ECHO 1 DEB (METAL OBJ), 53

Orbit data source: Space-Track

ECHO 1 DEB (METAL OBJ), 53 is space debris in LEO originally from a launch on Fri, 12 Aug 1960 UTC launched from the Air Force Eastern Test Range (AFETR). Debris objects in space refer to the collection of defunct objects orbiting the Earth. Examples of debris include non-operational satellites, rocket bodies, and fragments generated from explosions, collisions, or faulty payload assembly.

Loading next visibility...
Identifier
53, 1960-009E
Orbit
LEO
Country
Flag of USUS
Related business
Manufacturer
Kaiser-Fleetwings
Mission
Spacecraft
Bus & Motor
ECHO CANISTER, Unknown motor
Mass
5 kg wet, 5 kg dry
Launch date (UTC)
1960-08-12 (65 years ago)
Launch vehicle
Unknown
Launch site
Air Force Eastern Test Range (AFETR)
Object type
Payload
Rocket body
Debris
Shape & HBR
Unknown shape, 0.9 m
Radar Cross Section
Medium (>0.1 m² and <1 m²)

Expand to show TLE details & history
Last TLE update: 16 hours ago

TLE from 16 hours ago
0 ECHO 1 DEB (METAL OBJ)
1    53U 60009E   25307.98888755 -.00000016  00000-0  68177-3 0  9998
2    53  47.2785 317.0016 0097725 131.0804 229.8476 12.17393093907998
Epoch: 2025-11-03T23:43Z
TLE epoch observation values (Epoch: 2025-11-03T23:43:59.884Z)
Latitude
0.00003°
Longitude
-82.48024°
Altitude
1,654.872 km
Speed
7.024 km/s
True Right ascension
21h 08m 00s
True Declination
0° 00' 00"
Sunlit
Object was in daylight at epoch
Visualization orbit readout
Latitude
Unknown
Longitude
Unknown
Altitude
Unknown
Speed
Unknown
Apparent Right ascension
Unknown
Apparent Declination
Unknown
Sunlit
N/A
Visualization observer readout
Local Sidereal Time
11:21:19
Azimuth
Unknown
Elevation
Unknown
Doppler factor
Unknown
Orbital elements
Apogee altitude
1,682.987 km
Perigee altitude
1,526.957 km
Semi-major axis
7,983.109 km
Eccentricity
0.00977
Inclination
47.2785°
RAAN
317.0016°
Arg. of periapsis
131.0804°
True anomaly
228.99839°
Mean anomaly
229.8476°
Eccentric anomaly
229.42232°
Mean motion
3.04288 °/min
Orbital period
118.31 mins
BSTAR
0.00068177
Loading maneuver chart data...
Computing Atmospheric mass density...
Loading historical data...
Loading historical data...
Loading historical data...
Loading historical data...
Loading historical data...
Loading historical data...
Loading historical data...
Other satellites on launch #9 in the year 1960 (1960-08-12 UTC)

Documentation

Showing up to 5 results
|